K9DC Weather Reports


time (UTC)temp
F
wind
direction
speed
knots
gust
knots
rain 1hr
in
rain 24hr
in
rain mn
in
humidity
%
barometer
mb
20260905224503 86 324 1.7 7.0 0.00 0.00 0.00 64 1010.6
20260905224004 86 322 2.6 7.8 0.00 0.00 0.00 63 1010.5
20260905223504 86 315 2.6 7.8 0.00 0.00 0.00 62 1010.7
20260905223003 86 316 2.6 7.0 0.00 0.00 0.00 59 1010.8
20260905222504 86 312 1.7 6.1 0.00 0.00 0.00 57 1010.9
20260905222004 86 296 1.7 6.1 0.00 0.00 0.00 56 1010.8
20260905221503 86 308 0.9 6.1 0.00 0.00 0.00 57 1010.9
20260905221003 86 312 0.9 4.3 0.00 0.00 0.00 57 1010.9
20260905220505 86 310 0.9 6.1 0.00 0.00 0.00 60 1010.7
20260905220004 87 310 1.7 8.7 0.00 0.00 0.00 63 1010.4
20260905215503 87 312 4.3 13.9 0.00 0.00 0.00 64 1010.4
20260905215003 87 311 4.3 13.9 0.00 0.00 0.00 65 1010.4
20260905214504 88 308 2.6 13.0 0.00 0.00 0.00 65 1010.5
20260905214004 88 307 1.7 4.3 0.00 0.00 0.00 65 1010.8
20260905213504 88 306 1.7 3.5 0.00 0.00 0.00 64 1010.8
20260905213003 89 307 0.9 3.5 0.00 0.00 0.00 64 1010.9
20260905212504 89 306 0.0 2.6 0.00 0.00 0.00 63 1010.8
20260905212006 90 307 0.9 2.6 0.00 0.00 0.00 62 1010.5
20260905211504 90 307 0.9 3.5 0.00 0.00 0.00 62 1010.8
20260905211005 90 307 1.7 4.3 0.00 0.00 0.00 60 1010.8
20260905210504 90 305 1.7 7.0 0.00 0.00 0.00 59 1010.4
20260905210004 90 304 1.7 7.0 0.00 0.00 0.00 59 1010.9
20260905205504 91 306 2.6 7.0 0.00 0.00 0.00 58 1010.8
20260905205005 91 304 2.6 8.7 0.00 0.00 0.00 56 1010.9
20260905204504 91 304 2.6 8.7 0.00 0.00 0.00 56 1011.1
20260905204003 92 311 2.6 8.7 0.00 0.00 0.00 55 1011.0
20260905203504 92 312 3.5 10.4 0.00 0.00 0.00 55 1011.0
20260905203005 92 295 3.5 10.4 0.00 0.00 0.00 53 1011.0
20260905202504 93 286 2.6 8.7 0.00 0.00 0.00 53 1010.9
20260905202003 93 301 2.6 8.7 0.00 0.00 0.00 53 1011.0
20260905201503 94 296 1.7 7.8 0.00 0.00 0.00 52 1011.3
20260905201003 94 290 2.6 7.8 0.00 0.00 0.00 52 1011.2
20260905200504 94 280 2.6 7.8 0.00 0.00 0.00 53 1011.1
20260905200004 95 267 1.7 7.0 0.00 0.00 0.00 50 1011.2
20260905195503 95 260 1.7 5.2 0.00 0.00 0.00 50 1011.2
20260905195004 95 255 2.6 8.7 0.00 0.00 0.00 50 1011.1
20260905194503 95 270 3.5 8.7 0.00 0.00 0.00 50 1011.2
20260905194004 95 299 3.5 9.6 0.00 0.00 0.00 49 1011.3
20260905193504 95 295 3.5 9.6 0.00 0.00 0.00 48 1011.4
20260905193005 95 275 3.5 9.6 0.00 0.00 0.00 49 1011.5
20260905192503 95 276 4.3 10.4 0.00 0.00 0.00 48 1011.5
20260905192003 96 267 3.5 10.4 0.00 0.00 0.00 48 1011.6
20260905191504 96 250 3.5 9.6 0.00 0.00 0.00 47 1011.6
20260905191004 96 250 2.6 7.8 0.00 0.00 0.00 48 1011.7
20260905190503 95 261 2.6 8.7 0.00 0.00 0.00 49 1011.7
20260905190003 95 265 3.5 8.7 0.00 0.00 0.00 48 1011.9
20260905185503 94 270 2.6 8.7 0.00 0.00 0.00 48 1011.8
20260905185004 94 283 2.6 7.0 0.00 0.00 0.00 49 1011.9
20260905184504 94 291 2.6 6.1 0.00 0.00 0.00 52 1012.1
20260905184003 94 287 2.6 9.6 0.00 0.00 0.00 48 1012.0
20260905183504 94 290 1.7 9.6 0.00 0.00 0.00 49 1012.2
20260905183003 94 304 1.7 7.8 0.00 0.00 0.00 48 1012.2
20260905182504 94 326 1.7 6.1 0.00 0.00 0.00 48 1012.3
20260905182003 94 304 2.6 8.7 0.00 0.00 0.00 48 1012.4
20260905181504 94 277 3.5 8.7 0.00 0.00 0.00 47 1012.4
20260905181003 94 233 1.7 7.8 0.00 0.00 0.00 48 1012.4
20260905180504 94 208 1.7 7.8 0.00 0.00 0.00 48 1012.4
20260905180004 94 255 2.6 7.8 0.00 0.00 0.00 48 1012.5
20260905175503 94 267 2.6 7.8 0.00 0.00 0.00 46 1012.6
20260905175003 94 238 2.6 7.8 0.00 0.00 0.00 47 1012.8
20260905174505 94 225 0.9 4.3 0.00 0.00 0.00 45 1012.8
20260905174007 94 247 0.0 1.7 0.00 0.00 0.00 46 1012.8
20260905173504 94 247 0.9 2.6 0.00 0.00 0.00 46 1012.7
20260905173004 93 250 1.7 7.0 0.00 0.00 0.00 49 1012.8
20260905172503 93 254 1.7 7.0 0.00 0.00 0.00 48 1012.9
20260905172004 92 256 0.9 5.2 0.00 0.00 0.00 47 1012.9
20260905171503 93 239 0.9 3.5 0.00 0.00 0.00 46 1013.1
20260905171005 92 211 3.5 7.8 0.00 0.00 0.00 48 1013.1
20260905170504 92 192 2.6 7.8 0.00 0.00 0.00 47 1013.1
20260905170003 92 165 0.9 7.0 0.00 0.00 0.00 47 1013.2
20260905165503 92 188 1.7 7.8 0.00 0.00 0.00 49 1013.3
20260905165004 92 194 1.7 7.8 0.00 0.00 0.00 47 1013.3
20260905164503 92 183 2.6 8.7 0.00 0.00 0.00 48 1013.4
20260905164003 91 175 4.3 8.7 0.00 0.00 0.00 51 1013.5
20260905163503 91 194 3.5 7.0 0.00 0.00 0.00 51 1013.5
20260905163004 91 187 3.5 8.7 0.00 0.00 0.00 50 1013.7
20260905162503 90 174 4.3 9.6 0.00 0.00 0.00 50 1013.7
20260905162003 90 170 5.2 10.4 0.00 0.00 0.00 49 1013.7
20260905161504 90 160 3.5 10.4 0.00 0.00 0.00 51 1013.6
20260905161005 90 147 1.7 8.7 0.00 0.00 0.00 51 1013.7
20260905160504 89 151 1.7 8.7 0.00 0.00 0.00 52 1013.6
20260905160003 89 166 2.6 7.8 0.00 0.00 0.00 53 1013.5
20260905155503 89 162 3.5 10.4 0.00 0.00 0.00 52 1013.6
20260905155004 88 163 3.5 10.4 0.00 0.00 0.00 55 1013.6
20260905154505 87 163 4.3 8.7 0.00 0.00 0.00 55 1013.5
20260905154003 87 171 4.3 11.3 0.00 0.00 0.00 55 1013.6
20260905153503 86 173 3.5 11.3 0.00 0.00 0.00 56 1013.6
20260905153004 86 164 4.3 9.6 0.00 0.00 0.00 57 1013.7
20260905152503 85 177 5.2 10.4 0.00 0.00 0.00 58 1013.8
20260905152003 85 182 4.3 12.2 0.00 0.00 0.00 56 1013.8
20260905151505 84 197 2.6 12.2 0.00 0.00 0.00 58 1013.8
20260905151004 84 207 3.5 12.2 0.00 0.00 0.00 58 1013.8
20260905150506 83 200 3.5 9.6 0.00 0.00 0.00 61 1013.7
20260905150003 83 192 3.5 9.6 0.00 0.00 0.00 61 1013.8
20260905145503 82 181 3.5 9.6 0.00 0.00 0.00 62 1013.8
20260905145004 82 172 2.6 9.6 0.00 0.00 0.00 62 1013.8
20260905144504 81 156 3.5 10.4 0.00 0.00 0.00 62 1013.8
20260905144003 80 155 4.3 10.4 0.00 0.00 0.00 64 1013.9
20260905143503 80 151 5.2 13.9 0.00 0.00 0.00 65 1013.9
20260905143004 79 139 7.0 14.8 0.00 0.00 0.00 66 1013.9
20260905142505 78 139 7.0 14.8 0.00 0.00 0.00 68 1014.0
20260905142004 78 153 5.2 13.0 0.00 0.00 0.00 69 1014.0
20260905141504 77 165 4.3 9.6 0.00 0.00 0.00 70 1014.0
20260905141003 76 152 4.3 11.3 0.00 0.00 0.00 71 1014.0
20260905140504 76 141 4.3 11.3 0.00 0.00 0.00 72 1014.0
20260905140004 76 138 4.3 10.4 0.00 0.00 0.00 73 1014.1
20260905135505 75 133 3.5 8.7 0.00 0.00 0.00 74 1014.0
20260905135004 75 138 3.5 8.7 0.00 0.00 0.00 74 1014.1
20260905134503 75 148 3.5 8.7 0.00 0.00 0.00 74 1014.2
20260905134003 75 152 4.3 8.7 0.00 0.00 0.00 74 1014.2
20260905133504 74 150 3.5 8.7 0.00 0.00 0.00 75 1014.2
20260905133003 74 147 2.6 10.4 0.00 0.00 0.00 75 1014.1
20260905132503 74 150 3.5 10.4 0.00 0.00 0.00 75 1014.2
20260905132003 74 146 3.5 8.7 0.00 0.00 0.00 76 1014.2
20260905131504 74 136 4.3 9.6 0.00 0.00 0.00 76 1014.2
20260905131003 73 141 4.3 9.6 0.00 0.00 0.00 76 1014.2
20260905130503 73 145 5.2 11.3 0.00 0.00 0.00 77 1014.3
20260905130004 73 136 4.3 11.3 0.00 0.00 0.00 77 1014.4
20260905125505 73 129 3.5 7.8 0.00 0.00 0.00 78 1014.3
20260905125003 73 125 3.5 8.7 0.00 0.00 0.00 78 1014.3
20260905124503 73 134 2.6 8.7 0.00 0.00 0.00 78 1014.2
20260905124004 73 154 2.6 7.8 0.00 0.00 0.00 78 1014.2
20260905123504 73 135 4.3 8.7 0.00 0.00 0.00 78 1014.0
20260905123004 73 129 4.3 9.6 0.00 0.00 0.00 78 1014.0
20260905122503 73 137 4.3 9.6 0.00 0.00 0.00 78 1014.1
20260905122004 72 131 4.3 8.7 0.00 0.00 0.00 78 1014.2
20260905121503 72 113 5.2 13.0 0.00 0.00 0.00 78 1014.2
20260905121004 72 111 6.1 13.0 0.00 0.00 0.00 79 1014.2
20260905120504 73 113 5.2 13.0 0.00 0.00 0.00 79 1014.2
20260905120003 73 108 4.3 9.6 0.00 0.00 0.00 79 1014.1
20260905115503 73 112 5.2 9.6 0.00 0.00 0.00 79 1014.0
20260905115005 73 108 6.1 11.3 0.00 0.00 0.00 80 1014.0
20260905114504 73 102 5.2 11.3 0.00 0.00 0.00 80 1013.9
20260905114003 73 109 5.2 9.6 0.00 0.00 0.00 80 1013.9
20260905113503 73 112 5.2 9.6 0.00 0.00 0.00 81 1013.9
20260905113004 74 105 6.1 13.0 0.00 0.00 0.00 82 1013.7
20260905112504 74 106 5.2 13.0 0.00 0.00 0.00 82 1013.8
20260905112004 74 108 3.5 13.0 0.00 0.00 0.00 84 1013.7
20260905111503 75 99 3.5 13.0 0.00 0.00 0.00 85 1013.5
20260905111003 75 90 5.2 18.2 0.00 0.00 0.00 85 1013.6
20260905110504 76 88 5.2 18.2 0.00 0.00 0.00 87 1013.4
20260905110004 76 87 3.5 12.2 0.00 0.00 0.00 87 1013.4
20260905105505 76 81 0.9 11.3 0.00 0.00 0.00 87 1013.2
20260905105003 76 72 0.0 11.3 0.00 0.00 0.00 87 1013.2
20260905104504 76 278 0.0 0.9 0.00 0.00 0.00 86 1012.6
20260905104003 75 0 0.0 0.0 0.00 0.00 0.00 86 1012.5
20260905103503 76 0 0.0 0.0 0.00 0.00 0.00 86 1012.4
20260905103004 76 0 0.0 0.0 0.00 0.00 0.00 86 1012.5
20260905102505 76 0 0.0 0.0 0.00 0.00 0.00 86 1012.5
20260905102003 76 0 0.0 0.0 0.00 0.00 0.00 86 1012.5
20260905101503 76 0 0.0 0.0 0.00 0.00 0.00 86 1012.5
20260905101003 76 0 0.0 0.0 0.00 0.00 0.00 86 1012.4
20260905100503 76 0 0.0 0.0 0.00 0.00 0.00 86 1012.3
20260905100004 76 0 0.0 0.0 0.00 0.00 0.00 86 1012.2
20260905095504 76 0 0.0 0.0 0.00 0.00 0.00 86 1012.2
20260905095003 76 0 0.0 0.0 0.00 0.00 0.00 86 1012.3
20260905094503 76 0 0.0 0.0 0.00 0.00 0.00 86 1012.3
20260905094004 76 0 0.0 0.0 0.00 0.00 0.00 86 1012.3
20260905093505 76 0 0.0 0.0 0.00 0.00 0.00 86 1012.3
20260905093003 76 0 0.0 0.0 0.00 0.00 0.00 86 1012.4
20260905092503 76 0 0.0 0.0 0.00 0.00 0.00 86 1012.3
20260905092005 76 0 0.0 0.0 0.00 0.00 0.00 85 1012.2
20260905091504 76 0 0.0 0.0 0.00 0.00 0.00 86 1012.3
20260905091004 76 278 0.0 1.7 0.00 0.00 0.00 85 1012.3
20260905090503 76 278 0.0 2.6 0.00 0.00 0.00 85 1012.1
20260905090003 76 278 0.0 2.6 0.00 0.00 0.00 85 1012.1
20260905085504 76 0 0.0 0.0 0.00 0.00 0.00 85 1012.1
20260905085004 76 0 0.0 0.0 0.00 0.00 0.00 85 1012.2
20260905084503 76 0 0.0 0.0 0.00 0.00 0.00 85 1012.3
20260905084003 76 0 0.0 0.0 0.00 0.00 0.00 85 1012.4
20260905083503 76 0 0.0 0.0 0.00 0.00 0.00 85 1012.3
20260905083004 77 0 0.0 0.0 0.00 0.00 0.00 85 1012.2
20260905082504 77 0 0.0 0.0 0.00 0.00 0.00 85 1012.2
20260905082005 77 0 0.0 0.0 0.00 0.00 0.00 84 1012.2
20260905081503 77 0 0.0 0.0 0.00 0.00 0.00 84 1012.1
20260905081003 77 0 0.0 0.0 0.00 0.00 0.00 84 1012.1
20260905080503 77 278 0.0 0.9 0.00 0.00 0.00 84 1011.9
20260905080005 77 278 0.0 2.6 0.00 0.00 0.00 84 1011.8
20260905075503 77 278 0.9 5.2 0.00 0.00 0.00 84 1011.6
20260905075003 77 278 0.0 5.2 0.00 0.00 0.00 84 1011.6
20260905074504 77 0 0.0 0.0 0.00 0.00 0.00 84 1011.5
20260905074005 77 0 0.0 0.0 0.00 0.00 0.00 84 1011.6
20260905073505 77 0 0.0 0.0 0.00 0.00 0.00 84 1011.5
20260905073003 77 0 0.0 0.0 0.00 0.00 0.00 84 1011.5
20260905072503 77 0 0.0 0.0 0.00 0.00 0.00 84 1011.6
20260905072003 77 0 0.0 0.0 0.00 0.00 0.00 84 1011.5
20260905071506 77 0 0.0 0.0 0.00 0.00 0.00 84 1011.6
20260905071004 77 0 0.0 0.0 0.00 0.00 0.00 83 1011.6
20260905070503 77 0 0.0 0.0 0.00 0.00 0.00 83 1011.6
20260905070003 77 0 0.0 0.0 0.00 0.00 0.00 83 1011.7
20260905065503 77 0 0.0 0.0 0.00 0.00 0.00 83 1011.7
20260905065004 77 0 0.0 0.0 0.00 0.00 0.00 83 1011.8
20260905064505 77 0 0.0 0.0 0.00 0.00 0.00 83 1011.8
20260905064003 77 0 0.0 0.0 0.00 0.00 0.00 83 1011.9
20260905063503 77 0 0.0 0.0 0.00 0.00 0.00 83 1012.1
20260905063004 77 0 0.0 0.0 0.00 0.00 0.00 83 1012.2
20260905062504 77 0 0.0 0.0 0.00 0.00 0.00 83 1012.3
20260905062003 77 0 0.0 0.0 0.00 0.00 0.00 83 1012.4
20260905061504 77 0 0.0 0.0 0.00 0.00 0.00 83 1012.5
20260905061003 78 0 0.0 0.0 0.00 0.00 0.00 83 1012.5
20260905060503 78 0 0.0 0.0 0.00 0.00 0.00 83 1012.5
20260905060004 78 0 0.0 0.0 0.00 0.00 0.00 83 1012.5
20260905055504 78 0 0.0 0.0 0.00 0.00 0.00 83 1012.4
20260905055003 78 0 0.0 0.0 0.00 0.00 0.00 83 1012.6
20260905054504 78 279 0.0 2.6 0.00 0.00 0.00 83 1012.7
20260905054003 78 278 0.9 2.6 0.00 0.00 0.00 83 1012.7
20260905053504 78 278 0.9 2.6 0.00 0.00 0.00 83 1012.8
20260905053005 78 279 0.0 2.6 0.00 0.00 0.00 83 1012.9
20260905052504 78 0 0.0 0.0 0.00 0.00 0.00 83 1012.9
20260905052004 78 0 0.0 0.0 0.00 0.00 0.00 83 1012.9
20260905051504 78 0 0.0 0.0 0.00 0.00 0.00 83 1012.9
20260905051003 78 0 0.0 0.0 0.00 0.00 0.00 83 1012.9
20260905050503 78 0 0.0 0.0 0.00 0.00 0.00 82 1012.9
20260905050003 79 0 0.0 0.0 0.00 0.00 0.00 82 1012.9
20260905045505 79 0 0.0 0.0 0.00 0.00 0.00 82 1012.9
20260905045004 79 0 0.0 0.0 0.00 0.00 0.00 82 1012.9
20260905044504 79 0 0.0 0.0 0.00 0.00 0.00 82 1012.9
20260905044003 79 0 0.0 0.0 0.00 0.00 0.00 81 1012.9
20260905043503 79 279 0.0 1.7 0.00 0.00 0.00 81 1012.9
20260905043005 79 279 0.0 1.7 0.00 0.00 0.00 81 1012.9
20260905042503 79 0 0.0 0.0 0.00 0.00 0.00 81 1012.9
20260905042003 79 0 0.0 0.0 0.00 0.00 0.00 81 1013.0
20260905041503 79 0 0.0 0.0 0.00 0.00 0.00 80 1013.0
20260905041003 80 0 0.0 0.0 0.00 0.00 0.00 80 1013.1
20260905040504 80 0 0.0 0.0 0.00 0.00 0.00 80 1013.1
20260905040003 80 0 0.0 0.0 0.00 0.00 0.00 80 1013.1
20260905035503 80 0 0.0 0.0 0.00 0.00 0.00 80 1013.1
20260905035004 80 0 0.0 0.0 0.00 0.00 0.00 80 1013.1
20260905034503 80 0 0.0 0.0 0.00 0.00 0.00 79 1013.1
20260905034005 80 0 0.0 0.0 0.00 0.00 0.00 79 1013.2
20260905033504 80 0 0.0 0.0 0.00 0.00 0.00 78 1013.2
20260905033003 80 0 0.0 0.0 0.00 0.00 0.00 78 1013.2
20260905032503 80 0 0.0 0.0 0.00 0.00 0.00 78 1013.1
20260905032003 81 0 0.0 0.0 0.00 0.00 0.00 78 1013.2
20260905031503 81 0 0.0 0.0 0.00 0.00 0.00 78 1013.2
20260905031004 81 0 0.0 0.0 0.00 0.00 0.00 78 1013.2
20260905030504 81 279 0.0 0.9 0.00 0.00 0.00 78 1013.2
20260905030003 81 279 0.9 2.6 0.00 0.00 0.00 77 1013.1
20260905025504 81 278 0.9 2.6 0.00 0.00 0.00 77 1013.1
20260905025004 81 278 0.9 2.6 0.00 0.00 0.00 77 1013.1
20260905024504 82 279 0.0 0.9 0.00 0.00 0.00 76 1013.0
20260905024006 82 279 0.0 0.9 0.00 0.00 0.00 76 1013.0
20260905023504 82 279 0.0 0.9 0.00 0.00 0.00 76 1012.9
20260905023003 82 0 0.0 0.0 0.00 0.00 0.00 76 1012.9
20260905022503 82 0 0.0 0.0 0.00 0.00 0.00 75 1012.9
20260905022004 82 0 0.0 0.0 0.00 0.00 0.00 75 1012.8
20260905021505 82 0 0.0 0.0 0.00 0.00 0.00 75 1012.8
20260905021005 83 0 0.0 0.0 0.00 0.00 0.00 74 1012.9
20260905020503 83 0 0.0 0.0 0.00 0.00 0.00 74 1012.8
20260905020003 83 0 0.0 0.0 0.00 0.00 0.00 73 1012.8
20260905015503 83 0 0.0 0.0 0.00 0.00 0.00 73 1012.8
20260905015005 83 0 0.0 0.0 0.00 0.00 0.00 73 1012.7
20260905014504 84 0 0.0 0.0 0.00 0.00 0.00 72 1012.7
20260905014005 84 0 0.0 0.0 0.00 0.00 0.00 71 1012.7
20260905013503 84 279 0.0 0.9 0.00 0.00 0.00 71 1012.7
20260905013004 84 279 0.0 0.9 0.00 0.00 0.00 71 1012.7
20260905012503 84 279 0.0 0.9 0.00 0.00 0.00 70 1012.7
20260905012004 85 279 0.0 0.9 0.00 0.00 0.00 69 1012.6
20260905011504 85 279 0.0 1.7 0.00 0.00 0.00 69 1012.5
20260905011004 85 279 0.0 1.7 0.00 0.00 0.00 69 1012.6
20260905010503 86 279 0.0 1.7 0.00 0.00 0.00 69 1012.6
20260905010003 86 0 0.0 0.0 0.00 0.00 0.00 68 1012.5
20260905005505 86 0 0.0 0.0 0.00 0.00 0.00 67 1012.5
20260905005004 86 279 0.0 0.9 0.00 0.00 0.00 66 1012.5
20260905004503 87 279 0.0 0.9 0.00 0.00 0.00 66 1012.4
20260905004004 87 279 0.0 1.7 0.00 0.00 0.00 65 1012.4
20260905003504 87 279 0.0 1.7 0.00 0.00 0.00 65 1012.3
20260905003004 88 279 0.0 1.7 0.00 0.00 0.00 64 1012.3
20260905002504 88 279 0.0 1.7 0.00 0.00 0.00 63 1012.4
20260905002003 88 279 0.0 0.9 0.00 0.00 0.00 62 1012.5
20260905001504 89 278 0.0 1.7 0.00 0.00 0.00 62 1012.5
20260905001003 89 279 0.0 1.7 0.00 0.00 0.00 61 1012.6
20260905000504 90 279 0.0 1.7 0.00 0.00 0.00 60 1012.5
20260905000004 90 278 0.9 2.6 0.00 0.00 0.00 59 1012.6
20260904235503 90 279 0.9 5.2 0.00 0.00 0.00 59 1012.5
20260904235004 91 282 0.9 5.2 0.00 0.00 0.00 59 1012.5
20260904234504 91 280 0.9 3.5 0.00 0.00 0.00 58 1012.5
20260904234004 91 277 1.7 6.1 0.00 0.00 0.00 58 1012.6
20260904233503 92 287 1.7 7.0 0.00 0.00 0.00 56 1012.6
20260904233004 92 284 2.6 7.0 0.00 0.00 0.00 55 1012.5
20260904232503 92 280 1.7 7.0 0.00 0.00 0.00 55 1012.6
20260904232005 92 286 1.7 6.1 0.00 0.00 0.00 55 1012.5
20260904231503 93 287 1.7 6.1 0.00 0.00 0.00 54 1012.4
20260904231003 93 288 0.9 6.1 0.00 0.00 0.00 54 1012.3
20260904230505 93 310 0.9 6.1 0.00 0.00 0.00 53 1012.3
20260904230004 93 307 2.6 7.0 0.00 0.00 0.00 53 1012.3
20260904225503 93 287 2.6 7.0 0.00 0.00 0.00 50 1012.3
20260904225003 94 275 3.5 7.0 0.00 0.00 0.00 50 1012.3